EW9456 Weather Reports


Display with metric or nautical units.
time (UTC)temp
F
wind
direction
speed
MPH
gust
MPH
rain 1hr
in
rain 24hr
in
rain mn
in
humidity
%
barometer
mb
20260506023413 68 15 0.0 0.0 0.00 0.26 0.13 38 1011.1
20260506022412 68 14 0.0 0.0 0.00 0.26 0.13 37 1011.0
20260506020413 69 13 0.0 0.0 0.00 0.26 0.13 34 1010.5
20260506014410 70 13 0.0 0.0 0.00 0.28 0.13 32 1010.4
20260506013410 71 13 0.0 0.0 0.00 0.28 0.13 32 1010.3
20260506012410 71 13 0.0 0.0 0.00 0.28 0.13 33 1010.2
20260506011410 72 15 0.0 0.0 0.00 0.28 0.13 32 1010.1
20260506010410 72 14 0.0 0.0 0.00 0.28 0.13 32 1010.0
20260506005412 73 13 0.0 0.0 0.00 0.28 0.13 32 1010.0
20260506004406 74 13 0.0 0.0 0.00 0.28 0.13 30 1009.9
20260506003404 75 15 0.0 0.0 0.00 0.28 0.13 29 1009.7
20260506002359 76 13 0.0 0.0 0.00 0.28 0.13 28 1009.6
20260506001359 75 13 0.0 0.0 0.00 0.28 0.13 30 1009.6
20260506000401 75 14 0.0 0.0 0.00 0.28 0.13 30 1009.6
20260505235359 74 13 0.0 0.0 0.00 0.28 0.13 30 1009.5
20260505234359 74 13 0.0 0.0 0.00 0.28 0.13 30 1009.3
20260505233359 75 13 0.0 0.0 0.00 0.28 0.13 30 1009.2
20260505232359 76 13 0.0 0.0 0.00 0.28 0.13 31 1009.1
20260505231356 76 15 0.0 0.0 0.00 0.28 0.13 31 1009.2
20260505230356 76 14 0.0 0.0 0.00 0.28 0.13 31 1009.2
20260505225354 76 12 0.0 0.0 0.00 0.28 0.13 29 1009.3
20260505223354 78 12 0.0 0.0 0.00 0.28 0.13 29 1009.6
20260505221355 77 13 0.0 0.0 0.00 0.28 0.13 31 1009.8
20260505215355 79 13 0.0 0.0 0.00 0.28 0.13 31 1010.0
20260505214354 79 178 0.0 0.0 0.00 0.28 0.13 31 1010.1
20260505213349 78 5 0.0 0.0 0.00 0.28 0.13 35 1010.2
20260505212349 78 12 0.0 0.0 0.00 0.28 0.13 35 1010.4
20260505211349 77 15 0.0 0.0 0.00 0.28 0.13 37 1010.4
20260505210349 77 12 0.0 0.0 0.00 0.28 0.13 32 1010.3
20260505204349 78 13 0.0 0.0 0.00 0.28 0.13 33 1010.5
20260505203349 78 13 0.0 0.0 0.00 0.28 0.13 34 1010.5
20260505202349 77 13 0.0 0.0 0.00 0.28 0.13 33 1010.5
20260505201353 77 12 0.0 0.0 0.00 0.28 0.13 36 1010.6
20260505200342 76 15 0.0 0.0 0.00 0.28 0.13 42 1010.9
20260505195343 75 13 0.0 0.0 0.00 0.28 0.13 46 1010.9
20260505194342 73 13 0.0 0.0 0.00 0.28 0.13 41 1011.1
20260505191342 70 13 0.0 0.0 0.00 0.28 0.13 53 1011.2
20260505190342 70 12 0.0 0.0 0.00 0.28 0.13 54 1011.4
20260505185342 70 12 0.0 0.0 0.00 0.28 0.13 53 1011.5
20260505184341 70 12 0.0 0.0 0.00 0.28 0.13 55 1011.5
20260505183336 70 11 0.0 0.0 0.00 0.28 0.13 55 1011.8
20260505182338 71 11 0.0 0.0 0.00 0.28 0.13 56 1011.8
20260505181336 69 12 0.0 0.0 0.00 0.28 0.13 60 1012.0
20260505180335 68 12 0.0 0.0 0.00 0.28 0.13 60 1012.0
20260505175336 67 12 0.0 0.0 0.00 0.28 0.13 62 1012.2
20260505174336 67 11 0.0 0.0 0.00 0.28 0.13 62 1012.3
20260505173336 66 13 0.0 0.0 0.00 0.28 0.13 64 1012.4
20260505172335 66 13 0.0 0.0 0.00 0.28 0.13 65 1012.3
20260505171336 66 13 0.0 0.0 0.00 0.28 0.13 67 1012.3
20260505170330 65 13 0.0 0.0 0.00 0.28 0.13 68 1012.3
20260505165330 65 212 0.0 0.0 0.00 0.28 0.13 69 1012.2
20260505164330 65 212 0.0 0.0 0.00 0.28 0.13 70 1012.3
20260505163332 64 213 0.0 0.0 0.00 0.28 0.13 71 1012.2
20260505161330 63 214 0.0 0.0 0.00 0.28 0.13 75 1012.4
20260505160329 63 209 0.0 0.0 0.00 0.28 0.13 76 1012.4
20260505153329 62 200 0.0 0.0 0.00 0.28 0.13 84 1012.0
20260505151329 61 182 0.0 0.0 0.00 0.28 0.13 86 1012.0
20260505140319 60 165 0.0 0.0 0.00 0.28 0.13 85 1011.7
20260505124320 58 180 0.0 0.0 0.01 0.28 0.13 84 1011.0
20260505123320 58 180 0.0 0.0 0.01 0.28 0.13 84 1010.7
20260505121319 58 180 0.0 0.0 0.00 0.27 0.12 84 1010.7
20260505120319 58 187 0.0 0.0 0.00 0.27 0.12 84 1010.5
20260505115319 58 193 0.0 0.0 0.00 0.27 0.12 85 1010.4
20260505113319 58 170 0.0 0.0 0.01 0.27 0.12 85 1010.5
20260505111319 58 167 0.0 0.0 0.02 0.27 0.12 87 1010.5
20260505110319 58 193 0.0 0.0 0.02 0.27 0.12 87 1010.6
20260505100315 58 127 0.0 0.0 0.01 0.25 0.10 86 1011.7
20260505095316 58 161 0.0 0.0 0.01 0.25 0.10 87 1011.6
20260505094315 59 150 0.0 0.0 0.00 0.24 0.09 87 1011.6
20260505092315 59 185 0.0 0.0 0.02 0.24 0.09 85 1011.9
20260505091315 59 175 0.0 0.0 0.02 0.24 0.09 85 1011.9
20260505090314 59 171 0.0 0.0 0.03 0.24 0.09 85 1011.7
20260505085310 59 186 0.0 0.0 0.04 0.24 0.09 86 1012.0
20260505084310 59 170 0.0 0.0 0.06 0.24 0.09 86 1012.2
20260505083307 59 140 0.0 0.0 0.06 0.23 0.08 86 1012.9
20260505082307 59 163 0.0 0.0 0.06 0.22 0.07 87 1013.4
20260505081307 59 156 0.0 0.0 0.06 0.22 0.07 86 1013.6
20260505080307 59 178 0.0 0.0 0.05 0.21 0.06 86 1014.0
20260505075307 59 151 0.0 0.0 0.05 0.20 0.05 86 1014.1
20260505074307 59 160 0.0 0.0 0.04 0.18 0.04 85 1014.2
20260505073306 59 163 0.0 0.0 0.04 0.17 0.02 85 1014.4
20260505072301 60 178 0.0 0.0 0.04 0.16 0.01 85 1014.3
20260505071301 60 173 0.0 0.0 0.05 0.16 0.01 85 1014.3
20260505070301 60 165 0.0 0.0 0.05 0.16 0.01 84 1014.2
20260505065303 60 165 0.0 0.0 0.04 0.15 0.15 84 1014.3
20260505064300 60 166 0.0 0.0 0.04 0.14 0.14 83 1014.1
20260505063301 60 159 0.0 0.0 0.04 0.13 0.13 83 1014.1
20260505062301 60 152 0.0 0.0 0.04 0.12 0.12 83 1014.2
20260505061300 60 150 0.0 0.0 0.03 0.11 0.11 82 1014.3
20260505060305 60 178 0.0 0.0 0.03 0.11 0.11 82 1014.3
20260505054259 60 176 0.0 0.0 0.04 0.10 0.10 82 1014.0
20260505053259 60 154 0.0 0.0 0.04 0.09 0.09 82 1014.0
20260505051259 60 208 0.0 0.0 0.04 0.08 0.08 81 1014.0
20260505050259 60 159 0.0 0.0 0.05 0.08 0.08 80 1013.8
20260505040256 64 222 0.0 0.0 0.01 0.03 0.03 67 1014.4
20260505034255 64 190 0.0 0.0 0.00 0.02 0.02 60 1013.8
20260505033255 64 159 0.0 0.0 0.00 0.02 0.02 61 1013.1
20260505031254 62 150 0.0 0.0 0.00 0.02 0.02 60 1012.3
20260505030254 61 154 0.0 0.0 0.00 0.02 0.02 58 1012.9
20260505025254 61 139 0.0 0.0 0.01 0.02 0.02 61 1013.3
20260505024254 61 136 0.0 0.0 0.02 0.02 0.02 62 1013.1